Location: Beddau
(51.5575°N, 3.3561°W)
Time: 13:59:28
(UTC+00:00)

Cosmos 2278 Rocket - Pass Details

Date: 03 March 2021
Orbit: 841 x 845 km, 71.0° (Epoch: 10 April)

Event Time Altitude Azimuth Distance (km) Brightness Sun altitude
Rises 20:21:54 0° 330° (NNW) 3,417 6.1 -22.9°
Reaches altitude 10° 20:24:23 10° 333° (NNW) 2,478 5.2 -23.3°
Maximum altitude 20:30:03 69° 57° (ENE) 908 2.1 -24.1°
Enters shadow 20:30:48 61° 101° (E) 957 2.1 -24.2°
